TimeCDT,TemperatureF,Dew PointF,Humidity,Sea Level PressureIn,VisibilityMPH,Wind Direction,Wind SpeedMPH,Gust SpeedMPH,PrecipitationIn,Events,Conditions,WindDirDegrees,DateUTC
12:15 AM,50.9,44.6,79,30.06,10.0,SE,4.6,-,N/A,,Clear,140,2013-10-11 05:15:00
12:35 AM,50.4,44.6,81,30.06,10.0,SSE,3.5,-,N/A,,Clear,160,2013-10-11 05:35:00
12:55 AM,50.4,44.6,81,30.06,10.0,SSE,3.5,-,N/A,,Clear,150,2013-10-11 05:55:00
1:15 AM,50.2,44.4,81,30.06,10.0,SSE,3.5,-,N/A,,Clear,150,2013-10-11 06:15:00
1:55 AM,48.2,44.4,87,30.06,10.0,SSE,3.5,-,N/A,,Clear,160,2013-10-11 06:55:00
2:15 AM,48.6,43.9,84,30.06,10.0,Calm,Calm,-,N/A,,Clear,0,2013-10-11 07:15:00
2:35 AM,47.8,45.3,91,30.06,10.0,SSE,3.5,-,N/A,,Clear,160,2013-10-11 07:35:00
2:55 AM,48.2,43.7,84,30.06,10.0,SSE,3.5,-,N/A,,Clear,150,2013-10-11 07:55:00
3:15 AM,45.9,44.8,96,30.06,10.0,SSE,3.5,-,N/A,,Clear,150,2013-10-11 08:15:00
3:35 AM,46.4,45.0,95,30.06,10.0,Calm,Calm,-,N/A,,Clear,0,2013-10-11 08:35:00
3:55 AM,43.3,43.3,100,30.06,4.0,Calm,Calm,-,N/A,,Clear,0,2013-10-11 08:55:00
4:15 AM,42.6,42.4,99,30.07,7.0,Calm,Calm,-,N/A,,Clear,0,2013-10-11 09:15:00
4:35 AM,44.6,43.9,97,30.07,10.0,SSE,3.5,-,N/A,,Clear,150,2013-10-11 09:35:00
4:55 AM,48.0,46.2,93,30.07,10.0,Calm,Calm,-,N/A,,Clear,0,2013-10-11 09:55:00
5:15 AM,48.2,46.4,93,30.06,10.0,Calm,Calm,-,N/A,,Clear,0,2013-10-11 10:15:00
5:35 AM,46.4,45.5,97,30.06,10.0,Calm,Calm,-,N/A,,Clear,0,2013-10-11 10:35:00
5:55 AM,43.0,42.6,99,30.07,4.0,SSE,3.5,-,N/A,,Clear,160,2013-10-11 10:55:00
6:15 AM,45.7,45.7,100,30.06,10.0,SSE,3.5,-,N/A,,Clear,150,2013-10-11 11:15:00
6:35 AM,46.2,46.0,99,30.06,10.0,Calm,Calm,-,N/A,,Clear,0,2013-10-11 11:35:00
6:55 AM,46.8,46.2,98,30.06,7.0,Calm,Calm,-,N/A,,Clear,0,2013-10-11 11:55:00
7:15 AM,45.0,45.0,100,30.06,4.0,SE,3.5,-,N/A,,Clear,140,2013-10-11 12:15:00
7:35 AM,45.7,45.7,100,30.05,5.0,SE,4.6,-,N/A,,Clear,130,2013-10-11 12:35:00
7:55 AM,48.9,47.8,96,30.05,7.0,SE,4.6,-,N/A,,Clear,130,2013-10-11 12:55:00
8:15 AM,50.5,48.6,93,30.05,7.0,SE,3.5,-,N/A,,Clear,140,2013-10-11 13:15:00
8:35 AM,52.2,48.9,89,30.05,10.0,SE,5.8,-,N/A,,Clear,130,2013-10-11 13:35:00
8:55 AM,53.1,48.6,85,30.05,10.0,SE,4.6,-,N/A,,Clear,140,2013-10-11 13:55:00
9:15 AM,53.6,48.0,81,30.05,10.0,SE,4.6,-,N/A,,Clear,140,2013-10-11 14:15:00
9:35 AM,54.9,48.7,80,30.05,10.0,Calm,Calm,-,N/A,,Clear,0,2013-10-11 14:35:00
9:55 AM,57.7,48.4,71,30.06,10.0,South,5.8,-,N/A,,Scattered Clouds,170,2013-10-11 14:55:00
10:15 AM,58.1,48.2,70,30.06,10.0,SSE,5.8,-,N/A,,Mostly Cloudy,150,2013-10-11 15:15:00
10:35 AM,59.0,48.4,68,30.05,10.0,SSE,3.5,-,N/A,,Scattered Clouds,150,2013-10-11 15:35:00
10:55 AM,61.0,49.1,65,30.05,10.0,South,5.8,-,N/A,,Clear,170,2013-10-11 15:55:00
11:15 AM,62.2,49.5,63,30.04,10.0,SE,6.9,-,N/A,,Scattered Clouds,140,2013-10-11 16:15:00
11:35 AM,63.9,50.4,61,30.04,10.0,SE,6.9,-,N/A,,Scattered Clouds,140,2013-10-11 16:35:00
11:55 AM,65.3,50.7,59,30.03,10.0,SSE,3.5,-,N/A,,Scattered Clouds,150,2013-10-11 16:55:00
12:15 PM,65.1,50.9,60,30.03,10.0,SE,6.9,-,N/A,,Mostly Cloudy,130,2013-10-11 17:15:00
12:35 PM,68.2,50.2,53,30.01,10.0,SE,8.1,-,N/A,,Mostly Cloudy,140,2013-10-11 17:35:00
12:55 PM,68.9,49.3,50,30.00,10.0,SSE,11.5,17.3,N/A,,Scattered Clouds,160,2013-10-11 17:55:00
1:15 PM,68.9,49.3,50,29.99,10.0,SE,11.5,18.4,N/A,,Scattered Clouds,140,2013-10-11 18:15:00
1:35 PM,70.9,48.2,44,29.97,10.0,SSE,15.0,21.9,N/A,,Mostly Cloudy,150,2013-10-11 18:35:00
1:55 PM,70.3,46.9,43,29.96,10.0,SSE,15.0,21.9,N/A,,Mostly Cloudy,150,2013-10-11 18:55:00
2:15 PM,69.1,47.5,46,29.96,10.0,South,13.8,20.7,N/A,,Mostly Cloudy,180,2013-10-11 19:15:00
2:35 PM,69.3,47.5,46,29.94,10.0,SSE,11.5,20.7,N/A,,Mostly Cloudy,160,2013-10-11 19:35:00
2:55 PM,70.3,47.5,44,29.93,10.0,SSE,13.8,23.0,N/A,,Scattered Clouds,150,2013-10-11 19:55:00
3:15 PM,70.7,47.1,43,29.93,10.0,SSE,13.8,24.2,N/A,,Mostly Cloudy,150,2013-10-11 20:15:00
3:35 PM,70.0,46.8,43,29.92,10.0,SSE,12.7,28.8,N/A,,Mostly Cloudy,150,2013-10-11 20:35:00
3:55 PM,69.4,47.1,45,29.92,10.0,SSE,17.3,25.3,N/A,,Scattered Clouds,160,2013-10-11 20:55:00
4:15 PM,69.8,48.0,46,29.91,10.0,SSE,10.4,19.6,N/A,,Scattered Clouds,150,2013-10-11 21:15:00
4:35 PM,68.7,49.6,51,29.91,10.0,SSE,10.4,23.0,N/A,,Mostly Cloudy,150,2013-10-11 21:35:00
4:55 PM,67.1,50.2,55,29.92,10.0,South,15.0,24.2,N/A,,Overcast,170,2013-10-11 21:55:00
5:15 PM,66.9,50.9,56,29.91,10.0,SE,11.5,21.9,N/A,,Mostly Cloudy,140,2013-10-11 22:15:00
5:35 PM,66.2,51.1,58,29.91,10.0,SSE,10.4,20.7,N/A,,Mostly Cloudy,150,2013-10-11 22:35:00
5:55 PM,66.0,51.4,59,29.91,10.0,SSE,11.5,17.3,N/A,,Mostly Cloudy,150,2013-10-11 22:55:00
6:15 PM,64.2,52.2,65,29.90,10.0,SE,10.4,-,N/A,,Scattered Clouds,130,2013-10-11 23:15:00
6:35 PM,63.3,53.1,69,29.91,10.0,SSE,11.5,18.4,N/A,,Clear,150,2013-10-11 23:35:00
6:55 PM,62.6,53.1,71,29.91,10.0,SE,11.5,19.6,N/A,,Scattered Clouds,140,2013-10-11 23:55:00
7:15 PM,62.2,53.2,72,29.91,10.0,SSE,11.5,-,N/A,,Mostly Cloudy,150,2013-10-12 00:15:00
7:35 PM,61.7,52.7,72,29.92,10.0,SSE,11.5,18.4,N/A,,Mostly Cloudy,150,2013-10-12 00:35:00
7:55 PM,60.8,52.0,73,29.92,10.0,SSE,6.9,17.3,N/A,,Scattered Clouds,150,2013-10-12 00:55:00
8:15 PM,60.3,51.4,73,29.92,10.0,SSE,11.5,17.3,N/A,,Clear,160,2013-10-12 01:15:00
8:35 PM,59.9,50.5,71,29.93,10.0,SSE,10.4,18.4,N/A,,Scattered Clouds,150,2013-10-12 01:35:00
8:55 PM,59.9,49.5,68,29.92,10.0,SSE,12.7,21.9,N/A,,Scattered Clouds,160,2013-10-12 01:55:00
9:15 PM,59.9,49.1,67,29.92,10.0,SSE,10.4,19.6,N/A,,Scattered Clouds,150,2013-10-12 02:15:00
9:35 PM,59.4,48.4,67,29.92,10.0,South,11.5,19.6,N/A,,Clear,170,2013-10-12 02:35:00
9:55 PM,59.0,47.8,66,29.91,10.0,SSE,9.2,23.0,N/A,,Scattered Clouds,150,2013-10-12 02:55:00
10:15 PM,59.0,47.3,65,29.91,10.0,SSE,11.5,20.7,N/A,,Scattered Clouds,150,2013-10-12 03:15:00
10:35 PM,58.5,47.1,66,29.90,10.0,SSE,10.4,20.7,N/A,,Mostly Cloudy,150,2013-10-12 03:35:00
10:55 PM,58.3,46.8,66,29.90,10.0,SSE,12.7,21.9,N/A,,Mostly Cloudy,160,2013-10-12 03:55:00
11:15 PM,57.7,46.4,66,29.90,10.0,SSE,11.5,19.6,N/A,,Scattered Clouds,150,2013-10-12 04:15:00
11:35 PM,57.7,46.4,66,29.89,10.0,SSE,10.4,16.1,N/A,,Mostly Cloudy,160,2013-10-12 04:35:00
11:55 PM,58.1,45.9,64,29.88,10.0,SSE,8.1,19.6,N/A,,Overcast,160,2013-10-12 04:55:00